TALLINN current weather conditions

sailwx.info

Wind from 130 at 9 knots

Air temperature -2.0° C
Visibility: greater than 5.4 NM
Dewpoint -7.0° C

Last reported at 2014-Oct-22 22:20 UTC.
Time now 2014-Oct-22 23:56 UTC

Location: N 59°24' E 024°49'.
View on Google Maps.

See reports from other nearby stations

  
Tides and Currents Weather Stations Pressure Air Temp Water Temp Dewpoint Dewpoint Depression Visibility Wind Speed Wind Dir Waves Ship Positions
date/time (UTC)wind fromknots sea level pressurealtimeterstation pressurevisibilityair tempwater tempwave heightnotes
2014-Oct-22 22:20 130 9 5.4-2.0
2014-Oct-22 21:50 100 10 5.4-2.0
2014-Oct-22 21:20 090 16 5.4-2.0
2014-Oct-22 20:50 100 16 5.4-2.0
2014-Oct-22 20:20 100 11 5.4-1.0
2014-Oct-22 19:50 090 11 5.4-2.0
2014-Oct-22 19:20 080 14 5.4-2.0
2014-Oct-22 18:50 080 16 5.4-2.0
2014-Oct-22 18:20 090 13 5.4-2.0
2014-Oct-22 17:50 090 13 5.4-2.0
2014-Oct-22 17:20 080 15 5.4-1.0
2014-Oct-22 16:50 080 15 5.4-1.0
2014-Oct-22 16:20 080 17 5.4-0.0
2014-Oct-22 15:50 080 16 5.4-0.0
2014-Oct-22 15:20 090 15 5.4-0.0
2014-Oct-22 14:50 090 15 5.4-0.0
2014-Oct-22 14:20 080 12 5.4 1.0
2014-Oct-22 13:50 100 13 5.4-0.0
2014-Oct-22 13:20 100 16 5.4 1.0
2014-Oct-22 12:50 100 15 5.4 1.0
2014-Oct-22 12:20 110 13 5.4 1.0
2014-Oct-22 11:50 100 16 5.4 1.0
2014-Oct-22 11:20 100 18 5.4 1.0
2014-Oct-22 10:50 100 17 1.0
2014-Oct-22 10:20 100 17 1.0
2014-Oct-22 09:50 110 16 1.0
2014-Oct-22 09:20 110 16 -0.0
2014-Oct-22 08:50 110 16 -0.0
2014-Oct-22 08:20 110 14 5.4-0.0
2014-Oct-22 07:50 110 15 5.4-0.0
2014-Oct-22 07:20 110 14 5.4-0.0
2014-Oct-22 06:50 100 12 5.4-1.0
2014-Oct-22 06:20 100 10 5.4-1.0
2014-Oct-22 05:50 100 10 5.4-1.0
2014-Oct-22 05:20 110 11 5.4-0.0
2014-Oct-22 04:50 100 11 5.4-0.0
2014-Oct-22 04:20 090 10 5.4-0.0
2014-Oct-22 03:50 100 12 5.4-0.0
2014-Oct-22 03:20 110 11 5.4 1.0
2014-Oct-22 02:50 110 10 5.4-0.0
2014-Oct-22 02:20 090 7 5.4-0.0
2014-Oct-22 01:50 090 7 5.4-0.0
2014-Oct-22 01:20 080 8 5.4-0.0
2014-Oct-22 00:50 090 8 5.4-0.0
2014-Oct-22 00:20 080 9 5.4-0.0
2014-Oct-21 23:50 080 8 5.4-0.0
2014-Oct-21 23:20 080 8 5.4-0.0
2014-Oct-21 22:50 090 6 5.4-0.0
2014-Oct-21 22:20 090 6 5.4-0.0
2014-Oct-21 21:50 100 6 5.4-0.0
2014-Oct-21 21:20 120 7 5.4 1.0
2014-Oct-21 20:50 110 9 5.4 1.0
2014-Oct-21 20:20 100 7 5.4 1.0
2014-Oct-21 19:50 090 9 5.4 1.0
2014-Oct-21 19:20 090 9 5.4 1.0
2014-Oct-21 18:50 090 10 5.4 1.0
2014-Oct-21 18:20 100 12 5.4 1.0
2014-Oct-21 17:50 090 9 5.4 1.0
2014-Oct-21 17:20 080 9 5.4 1.0 Light snow showers.
2014-Oct-21 16:50 070 9 2.4 2.0 Small hail/snow pellets showers.
2014-Oct-21 16:20 090 12 5.4 2.0
2014-Oct-21 15:50 090 13 5.4 2.0
2014-Oct-21 15:20 090 10 5.4 1.0
2014-Oct-21 14:50 080 11 5.4 2.0
2014-Oct-21 14:20 080 10 5.4 3.0
2014-Oct-21 13:50 060 7 5.4 2.0
2014-Oct-21 13:20 070 10 5.4 3.0
2014-Oct-21 12:50 060 11 5.4 4.0
2014-Oct-21 12:20 070 10 5.4 3.0
2014-Oct-21 11:50 070 10 5.4 3.0
2014-Oct-21 11:20 070 9 5.4 4.0
2014-Oct-21 10:50 070 10 5.4 4.0
2014-Oct-21 10:20 070 9 5.4 4.0
2014-Oct-21 09:50 050 10 5.4 3.0 Light rain.
2014-Oct-21 09:20 080 9 5.4 4.0
2014-Oct-21 08:50 100 9 5.4 3.0
2014-Oct-21 08:20 050 8 4.9 4.0 Light rain.
2014-Oct-21 07:50 070 9 5.4 4.0
2014-Oct-21 07:20 070 6 5.4 4.0
2014-Oct-21 06:50 090 7 5.4 3.0
2014-Oct-21 06:20 080 7 5.4 3.0
2014-Oct-21 05:50 060 8 5.4 3.0 Light rain.
2014-Oct-21 05:20 060 8 5.4 3.0 Light rain.
2014-Oct-21 04:50 060 8 5.4 3.0 Light rain.
2014-Oct-21 04:20 060 9 5.4 4.0 Light rain.
2014-Oct-21 03:50 060 7 5.4 4.0
2014-Oct-21 03:20 050 8 5.4 4.0
2014-Oct-21 02:50 060 7 5.4 4.0
2014-Oct-21 02:20 050 12 5.4 4.0
2014-Oct-21 01:50 060 9 5.4 4.0
2014-Oct-21 01:20 050 10 5.4 4.0
2014-Oct-21 00:50 060 8 5.4 5.0
2014-Oct-21 00:20 060 9 5.4 5.0
2014-Oct-20 23:50 050 11 5.4 5.0
2014-Oct-20 23:20 050 11 5.4 5.0 Light drizzle rain.